Location: Bosmont
(49.7318°N, 3.8587°E)
Time: 23:08:29
(UTC+00:00)

SL-08 RB Rocket - Pass Details

Date: 08 February 2023
Orbit: 643 x 682 km, 97.7° (Epoch: 01 April)

Event Time Altitude Azimuth Distance (km) Brightness Sun altitude
Rises 17:17:53 0° 171° (S) 3,028 7.2 -4.9°
Reaches altitude 10° 17:20:07 10° 174° (S) 2,120 6.5 -5.3°
Maximum altitude 17:24:45 70° 258° (WSW) 732 4.2 -6.0°
Drops below altitude 10° 17:29:26 10° 342° (NNW) 2,139 6.4 -6.7°
Sets 17:31:42 0° 345° (NNW) 3,057 7.1 -7.1°
